Regional Weather Roundup
Issued by NWS

Home | Current Version | Previous Version | Graphics & Text | Print | Product List | Glossary On
Versions: 1 2 3 4 5 6 7 8 9 10 11 12 13 14 15 16 17 18 19 20 21 22 23 24 25 26 27 28 29 30 31 32 33 34 35 36 37 38 39 40 41 42 43 44 45 46 47 48 49 50
000
ASUS45 KTFX 270804
RWRMT
MONTANA HOURLY WEATHER ROUNDUP
NATIONAL WEATHER SERVICE GREAT FALLS MT
104 AM MST SAT DEC 27 2014

NOTE: "FAIR" INDICATES FEW OR NO CLOUDS BELOW 12000 FEET WITH NO
SIGNIFICANT WEATHER AND/OR OBSTRUCTIONS TO VISIBILITY.

* THESE STATIONS ARE NOT UNDER NWS QUALITY CONTROL. THEY DO NOT
   REPORT WEATHER SUCH AS PRECIPITATION OR FOG.

MTZ001>007-043-270900-
WEST OF THE DIVIDE
CITY           SKY/WX    TMP DP  RH WIND       PRES   REMARKS
KALISPELL      CLOUDY    19  18  96 CALM      30.18F
MISSOULA       CLOUDY    23  19  85 W3        30.23S
BUTTE          PTCLDY    -6  -9  87 S5        30.10F WCI -18
MULLAN PASS    CLOUDY    19  14  81 VRB5      30.06F WCI  12
* ESSEX        N/A       21  18  88 N/A        N/A
* LINCOLN      N/A       20  15  81 S7         N/A   WCI  11
* LOOKOUT PASS N/A       21  18  88 N2         N/A
* POLSON       N/A       22  21  96 N/A        N/A
* RONAN APT    MOCLDY    27  21  78 N/A        N/A
* SEELEY LAKE  N/A        8   4  84 N2         N/A
* THOMP F APT  MOCLDY    15   7  70 NW3        N/A
* YAAK HILL    N/A       25  21  85 N/A        N/A
$$

MTZ008-052>055-270900-
SOUTHWEST MONTANA
CITY           SKY/WX    TMP DP  RH WIND       PRES   REMARKS
BOZEMAN        FOG        0  -2  91 S3        30.14F VSB 1
DILLON         CLEAR      9   1  70 SW12      30.11F WCI  -6
* W YELLOWSTON PTCLDY   -17 -24  70 N/A        N/A
* THREE FORKS  CLEAR      3   3 100 N/A        N/A
* BOULDER HILL N/A       13   6  73 S6         N/A   WCI   4
* MONIDA PASS  N/A        7   3  83 SW3        N/A
* RAYNOLDS PAS N/A        2 -11  54 S3         N/A
* WHITEHALL    N/A        8   4  84 NW4        N/A
* WISE RIVER   N/A        3  -1  83 SE2        N/A
$$

MTZ009>010-012-014-046-048-049-054-270900-
EAST SLOPES AND CENTRAL MONTANA
CITY           SKY/WX    TMP DP  RH WIND       PRES   REMARKS
CUT BANK       CLOUDY    21  14  74 W21       29.97F WCI   5
GREAT FALLS    PTCLDY    14   9  80 S13       30.02F
HELENA         PTCLDY    12   9  88 CALM      30.12F
* DEARBORN     N/A       23  14  68 N2         N/A
* EAST GLACIER N/A       20  10  65 W23G29     N/A   WCI   3
* MONARCH      N/A       13   3  64 SW8        N/A   WCI   2
* PENDROY      N/A       14   5  67 N/A        N/A
* SWEET GRASS  N/A       14   7  73 SW4        N/A
$$

MTZ011-013-016-021-035-040-045-047-050-051-270900-
NORTH CENTRAL MONTANA
CITY           SKY/WX    TMP DP  RH WIND       PRES   REMARKS
HAVRE          CLEAR     10   9  96 W8        30.05F WCI  -2
LEWISTOWN      PTCLDY     5   1  83 E5        30.01F WCI  -5
* N BAR RANCH  CLEAR      9   1  70 W5        30.01F
* CHESTER      N/A        7   3  83 N/A        N/A
* DENTON       N/A        9   4  80 SW4G9      N/A
* GEYSER       N/A       15   6  67 SW13       N/A   WCI   1
* JUDITH GAP   N/A        6   2  83 SW5        N/A   WCI  -3
* LOMA         N/A       11   8  88 W2         N/A
$$

MTZ017>020-022>027-061-062-270900-
NORTHEAST MONTANA
CITY           SKY/WX    TMP DP  RH WIND       PRES   REMARKS
GLASGOW        CLEAR     16  10  77 W5        30.08F WCI   8
GLENDIVE       CLEAR     18  16  92 W6        30.11S WCI  10
JORDAN         CLEAR     14  10  84 W5        30.10F WCI   6
SIDNEY         CLEAR     21  16  81 W7        30.11F WCI  12
WOLF POINT     CLEAR     12   9  88 W8        30.11F
* BEAVER HILL  N/A       22  15  74 W9G14      N/A   WCI  12
* CIRCLE       N/A       16  13  88 N/A        N/A
* LINDSAY DVD  N/A       16  14  92 W9         N/A   WCI   5
* NAVAJO       N/A        7   4  87 W13        N/A   WCI  -9
* SACO         N/A       10   8  92 S3         N/A
$$

MTZ028>042-056>058-270900-
SOUTHCENTRAL AND SOUTHEAST MONTANA
CITY           SKY/WX    TMP DP  RH WIND       PRES   REMARKS
BAKER          CLOUDY    21  19  92 W8        30.09S WCI  11
BILLINGS       PTCLDY    16  10  77 SW17      30.09F
LIVINGSTON     CLEAR      7   1  76 NW14      30.08F WCI -10
MILES CITY     CLOUDY    21  18  88 W7        30.12F WCI  12
* LAUREL APT   PTCLDY     9   1  70 N/A        N/A
* ROUNDUP APT  PTCLDY    10   1  67 S10G15     N/A   WCI  -4
* ALZADA       N/A       18  15  88 W8         N/A   WCI   8
* HYSHAM       N/A       16  13  88 W4         N/A
* REED POINT   N/A        0  -2  91 E1         N/A
* ROSCOE HILL  N/A       17  -5  37 S6         N/A   WCI   8
$$

REGIONAL REPORTS...DAKOTAS
CITY           SKY/WX    TMP DP  RH WIND       PRES   REMARKS
WILLISTON      CLOUDY    19  16  88 W9        30.07F WCI   8
DICKINSON      CLOUDY    21  16  81 SW10      30.05F WCI  10
BEACH          CLOUDY    23  21  92 W9        30.08F WCI  13
CROSBY         CLOUDY    18  18 100 W10       30.06F WCI   6
WATFORD CITY   CLOUDY    23  18  81 W13       30.05S WCI  11
BISMARCK       CLOUDY     1   0  95 SE3       30.16F
GRAND FORKS    CLOUDY     3   1  91 CALM      30.20F
FARGO          CLEAR      5   0  80 N6        30.20S WCI  -6
BUFFALO SD     MOCLDY    16  10  77 W8        30.01F WCI   5
RAPID CITY     PTCLDY     5   1  83 NW5       30.12F WCI  -5
$$

REGIONAL REPORTS...WYOMING/IDAHO/WASHINGTON
CITY           SKY/WX    TMP DP  RH WIND       PRES   REMARKS
GILLETTE       CLOUDY    16  12  84 CALM      30.08S
SHERIDAN       CLEAR      3   1  91 SW5       30.10F WCI  -7
CODY           PTCLDY     9   3  76 S7        30.06F WCI  -2
YELLOWSTONE LA PTCLDY    -8 -13  78 CALM      30.03S
SALMON         MOCLDY    10   7  88 E3        30.23S
MULLAN PASS    CLOUDY    19  14  81 VRB5      30.06S WCI  12
SAND POINT     CLOUDY    30  30 100 S5        30.24F WCI  25
SPOKANE        FOG       21  21 100 CALM      30.23F

$$



USA.gov is the U.S. government's official web portal to all federal, state and local government web resources and services.